Location: Gazon
(48.1318°N, 1.2708°W)
Time: 02:37:51
(UTC+00:00)

Cosmos 2150 Rocket - Pass Details

Date: 18 September 2020
Orbit: 749 x 808 km, 74.0° (Epoch: 29 October)

Event Time Altitude Azimuth Distance (km) Brightness Sun altitude
Rises 20:27:00 0° 208° (SSW) 3,262 7.2 -22.5°
Reaches altitude 10° 20:29:23 10° 210° (SSW) 2,347 6.5 -22.9°
Maximum altitude 20:34:43 70° 295° (WNW) 848 4.3 -23.6°
Drops below altitude 10° 20:40:10 10° 19° (NNE) 2,394 6.7 -24.4°
Sets 20:42:37 0° 22° (NNE) 3,333 7.5 -24.7°
